#timestamp,LO_Frequency,Hit 
1498280415.8,286047011.0,N
1498280435.6,286047013.9,N
1498280455.4,286047011.2,N
1498280475.3,286047012.1,N
1498280495.1,286047011.5,N
1498280496.0,286047011.5,N
1498280515.8,286047011.2,N
1498280535.7,286047013.3,N
1498280555.5,286047011.6,N
1498280575.3,286047012.1,N
1498280595.2,286047013.9,N
1498280615.9,286047015.5,N
1498280635.7,286047013.2,N
1498280655.6,286047012.6,N
1498280675.4,286047014.2,N
1498280695.2,286047015.3,N
1498280715.0,286047015.5,N
1498280715.9,286047015.5,N
1498280735.8,286047015.1,N
1498280755.6,286047015.1,N
1498280775.4,286047015.5,N
1498280795.3,286047012.7,N
1498280815.1,286047013.4,N
1498280835.8,286047012.9,N
1498280855.7,286047013.9,N
1498280875.5,286047011.2,N
1498280895.3,286047013.3,N
1498280915.2,286047011.4,N
1498280935.9,286047012.3,N
1498280955.7,286047011.9,N
1498280975.5,286047011.2,N
1498280995.4,286047011.0,N
1498281015.2,286047009.3,N
1498281035.0,286047011.5,N
1498281035.9,286047011.5,N
1498281055.8,286047012.0,N
1498281075.6,286047011.6,N
1498281095.4,286047012.1,N
1498281115.3,286047012.0,N
1498281135.1,286047012.4,N
1498281136.0,286047012.4,N
1498281155.8,286047012.3,N
1498281175.7,286047014.0,N
1498281195.5,286047011.4,N
1498281215.3,286047011.5,N
1498281235.2,286047014.0,N
1498281255.9,286047015.2,N
1498281275.7,286047017.0,N
1498281295.6,286047017.1,N
1498281315.4,286047017.2,N
1498281335.2,286047012.5,N
1498281355.0,286047013.4,N
1498281355.9,286047013.4,N
1498281375.8,286047013.4,N
1498281395.6,286047012.3,N
1498281415.4,286047011.9,N
1498281435.3,286047012.7,N
1498281455.1,286047013.2,N
1498281456.0,286047013.2,N
1498281475.8,286047015.1,N
1498281495.7,286047015.0,N
1498281515.5,286047017.2,N
1498281535.3,286047013.0,N
1498281555.2,286047012.6,N
1498281575.9,286047014.3,N
1498281595.7,286047013.9,N
1498281615.5,286047011.4,N
1498281635.4,286047014.7,N
1498281655.2,286047013.6,N
1498281675.0,286047014.9,N
1498281675.9,286047014.9,N
1498281695.8,286047012.8,N
1498281715.6,286047013.0,N
1498281735.4,286047013.3,N
1498281755.3,286047015.4,N
1498281775.1,286047015.4,N
1498281795.8,286047014.2,N
1498281815.7,286047014.9,N
1498281835.5,286047017.8,N
1498281855.3,286047018.6,N
1498281875.2,286047017.3,N
1498281895.9,286047018.7,N
1498281915.7,286047020.3,Y
1498281935.6,286047002.8,N
1498281955.4,286047000.3,N
1498281975.2,286046996.5,N
1498281995.1,286046999.5,N
1498281996.0,286046999.5,N
1498282015.8,286046997.2,N
1498282035.6,286046999.5,N
1498282055.4,286046999.5,N
1498282075.3,286047000.2,N
1498282095.1,286047001.7,N
1498282115.8,286047005.8,N
1498282135.7,286047007.4,N
1498282155.5,286047007.5,N
1498282175.3,286047006.2,N
1498282195.2,286047006.8,N
1498282215.9,286047005.2,N
1498282235.7,286047004.2,N
1498282255.6,286047001.8,N
1498282275.4,286047002.5,N
1498282295.2,286047000.4,N
1498282315.0,286047002.0,N
1498282316.0,286047002.0,N
1498282335.8,286047007.0,N
1498282355.6,286047007.9,N
1498282375.4,286047008.8,N
1498282395.3,286047009.2,N
1498282415.1,286047007.0,N
1498282435.8,286047007.0,N
1498282455.7,286047008.1,N
1498282475.5,286047009.6,N
1498282495.3,286047008.1,N
1498282515.2,286047007.3,N
1498282535.9,286047004.7,N
1498282555.7,286047003.7,N
1498282575.6,286047001.5,N
1498282595.4,286047001.4,N
1498282615.2,286047003.6,N
1498282635.0,286047002.4,N
1498282635.9,286047002.4,N
1498282655.8,286046999.2,N
1498282675.6,286046993.4,N
1498282695.4,286046991.7,N
1498282715.3,286046992.4,N
1498282735.1,286046990.3,N
1498282736.0,286046990.3,N
1498282755.8,286046990.3,N
1498282775.7,286046990.5,N
1498282795.5,286046992.6,N
1498282815.3,286046991.0,N
1498282835.2,286046991.7,N
1498282855.9,286046994.3,N
1498282875.7,286046994.0,N
1498282895.5,286046995.1,N
1498282915.4,286046993.8,N
1498282935.2,286046996.1,N
1498282955.0,286046996.1,N
1498282955.9,286046996.1,N
1498282975.8,286046995.5,N
1498282995.6,286046996.6,N
1498283015.4,286047002.2,N
1498283035.3,286047004.9,N
1498283055.1,286047006.6,N
1498283056.0,286047006.6,N
1498283075.8,286047008.2,N
1498283095.7,286047007.9,N
1498283115.5,286047008.7,N
1498283135.3,286047006.6,N
1498283155.2,286047006.2,N
1498283175.9,286047006.3,N
1498283195.7,286047004.6,N
1498283215.5,286047005.8,N
1498283235.4,286047006.0,N
1498283255.2,286047003.1,N
1498283275.0,286046999.8,N
1498283275.9,286046999.8,N
1498283295.8,286047000.1,N
1498283315.6,286046999.4,N
1498283335.4,286046997.4,N
1498283355.3,286046999.5,N
1498283375.1,286046996.5,N
1498283395.9,286046999.5,N
1498283415.7,286046997.5,N
1498283435.5,286046995.2,N
1498283455.4,286046995.7,N
1498283475.2,286046996.3,N
1498283495.0,286046992.5,N
1498283495.9,286046992.5,N
1498283515.8,286046991.8,N
1498283535.6,286046992.3,N
1498283555.4,286046990.4,N
1498283575.2,286046990.7,N
1498283595.1,286046989.3,N
1498283596.0,286046989.3,N
1498283615.8,286046989.9,N
1498283635.6,286046989.7,N
1498283655.5,286046990.5,N
1498283675.3,286046992.1,N
1498283695.1,286046992.5,N
1498283715.9,286046993.7,N
1498283735.7,286046995.1,N
1498283755.5,286046996.1,N
1498283775.4,286046997.2,N
1498283795.2,286046999.3,N
1498283815.0,286046999.1,N
1498283815.9,286046999.1,N
1498283835.8,286046994.9,N
1498283855.6,286046996.0,N
1498283875.4,286046993.7,N
1498283895.2,286046993.6,N
1498283915.1,286046994.4,N
1498283916.0,286046994.4,N
1498283935.8,286046994.3,N
1498283955.6,286046995.7,N
1498283975.5,286046996.7,N
1498283995.3,286046999.3,N
